全球星 M057星 (GLOBALSTAR M057)

导读 | 星芒AI

GLOBALSTAR M057 是 Globalstar 卫星通信公司运营的一颗低轨移动通信卫星,属于第二代 Globalstar 卫星星座(称为“增强型星座”)的一部分。该卫星运行在约 1414 公里的近地轨道,主要用于提供语音和数据通信服务,支持手持终端和移动设备在偏远地区的通信需求。M057 卫星采用先进的数字信号处理技术,提高了通信质量和系统容量,广泛应用于应急响应、海上通信和远程作业等领域。

基本信息
目录编号:
25943
目录名称:
GLOBALSTAR M057
国际标识:
1999-058A
轨道中心:
EARTH
卫星名称:
全球星 M057星
卫星全名:
全球星 M057星 (GLOBALSTAR M057)
卫星状态:
在轨 (已飞行9508 天)
发射日期:
1999-10-18 UTC
国别 :
(GLOB)
星等 :
--
轨道信息
数据来源 国际轨道数据
星历时间: 2025-10-28T20:57:41+0800
1天前
查看轨道信息
半长轴: 7949.72km
偏心率: 0.0002274
轨道倾角: 52.000°
近地点辐角 287.320°
升交点赤经 329.748°
平近点角 72.740°
近地点: 1569.777km
远地点: 1573.393km
周期: 117.568分钟
每日圈数: 12.248278
详细信息
固有亮度:
5
最大亮度:
7.9
平衡模式:
三轴稳定
覆盖范围:
全球
运营商:
全球星公司
运营商所在国:
美国
使用方式:
暂无
卫星简介
全球星星座由48颗卫星加8颗备份星组成。这些卫星分布在8个倾角为52度的圆形轨道平面上,每个轨道平面6颗卫星,另有1 颗备用星。轨道高度约为1414km,传输时延和处理时延小于300ms,整个系统的覆盖区为南北纬70度以内的地区。该卫星已退役。
2D轨道图
3D轨道图
轨道高度分析图
轨道倾角分析图
轨道综合分析图
查看轨道综合分析图